TimeGMT,TemperatureF,Dew PointF,Humidity,Sea Level PressureIn,VisibilityMPH,Wind Direction,Wind SpeedMPH,Gust SpeedMPH,PrecipitationIn,Events,Conditions,WindDirDegrees,DateUTC
12:00 AM,48,47,93,29.75,12,WSW,12.7,,,Rain,Light Rain Showers,250,2012-12-21 00:00:00
3:00 AM,49,47,90,29.78,16,SW,9.2,,,,Partly Cloudy,230,2012-12-21 03:00:00
3:50 AM,48.2,46.4,93,29.77,6.2,WSW,9.2,-,N/A,,Mostly Cloudy,250,2012-12-21 03:50:00
4:20 AM,48.2,48.2,100,29.77,6.2,West,9.2,-,N/A,,Mostly Cloudy,260,2012-12-21 04:20:00
4:50 AM,46.4,46.4,100,29.77,6.2,West,6.9,-,N/A,,Scattered Clouds,260,2012-12-21 04:50:00
5:20 AM,46.4,44.6,93,29.77,6.2,WSW,10.4,-,N/A,,Partly Cloudy,250,2012-12-21 05:20:00
5:50 AM,46.4,44.6,93,29.77,6.2,WSW,10.4,-,N/A,,Partly Cloudy,240,2012-12-21 05:50:00
6:00 AM,46,46,97,29.81,9,WSW,9.2,,,,Scattered Clouds,250,2012-12-21 06:00:00
6:20 AM,44.6,44.6,100,29.80,6.2,WSW,8.1,-,N/A,,Partly Cloudy,250,2012-12-21 06:20:00
6:50 AM,46.4,44.6,93,29.80,6.2,WSW,8.1,-,N/A,,Partly Cloudy,240,2012-12-21 06:50:00
7:20 AM,46.4,46.4,100,29.80,6.2,SW,6.9,-,N/A,,Scattered Clouds,230,2012-12-21 07:20:00
7:50 AM,46.4,44.6,93,29.83,6.2,West,4.6,-,N/A,,Scattered Clouds,260,2012-12-21 07:50:00
8:20 AM,44.6,44.6,100,29.83,6.2,WSW,4.6,-,N/A,,Partly Cloudy,240,2012-12-21 08:20:00
8:50 AM,46.4,46.4,100,29.86,6.2,West,4.6,-,N/A,,Partly Cloudy,260,2012-12-21 08:50:00
9:00 AM,46,45,95,29.88,9,West,5.8,,,,Scattered Clouds,260,2012-12-21 09:00:00
9:20 AM,48.2,48.2,100,29.89,6.2,West,6.9,-,N/A,,Partly Cloudy,280,2012-12-21 09:20:00
9:50 AM,50.0,50.0,100,29.89,6.2,West,5.8,-,N/A,,Partly Cloudy,260,2012-12-21 09:50:00
10:20 AM,50.0,48.2,94,29.92,6.2,West,9.2,-,N/A,,Partly Cloudy,280,2012-12-21 10:20:00
10:50 AM,50.0,50.0,100,29.92,6.2,West,9.2,-,N/A,,Partly Cloudy,280,2012-12-21 10:50:00
11:20 AM,50.0,48.2,94,29.92,6.2,West,9.2,-,N/A,,Partly Cloudy,270,2012-12-21 11:20:00
11:50 AM,51.8,50.0,94,29.92,6.2,West,9.2,-,N/A,,Partly Cloudy,260,2012-12-21 11:50:00
12:20 PM,50.0,48.2,94,29.92,6.2,West,9.2,-,N/A,,Scattered Clouds,280,2012-12-21 12:20:00
12:50 PM,51.8,48.2,88,29.92,6.2,WNW,9.2,-,N/A,,Partly Cloudy,290,2012-12-21 12:50:00
1:20 PM,50.0,48.2,94,29.95,6.2,WNW,9.2,-,N/A,,Partly Cloudy,290,2012-12-21 13:20:00
1:50 PM,50.0,48.2,94,29.95,6.2,West,11.5,-,N/A,,Partly Cloudy,280,2012-12-21 13:50:00
2:20 PM,50.0,46.4,87,29.95,6.2,West,10.4,-,N/A,,Partly Cloudy,280,2012-12-21 14:20:00
2:50 PM,50.0,46.4,87,29.98,6.2,West,10.4,-,N/A,,Partly Cloudy,270,2012-12-21 14:50:00
3:00 PM,50,47,86,29.98,16,West,10.4,,,,Scattered Clouds,270,2012-12-21 15:00:00
3:20 PM,50.0,48.2,94,29.98,6.2,West,8.1,-,N/A,,Scattered Clouds,260,2012-12-21 15:20:00
3:50 PM,50.0,48.2,94,29.98,6.2,WSW,6.9,-,N/A,,Scattered Clouds,250,2012-12-21 15:50:00
4:20 PM,48.2,48.2,100,29.98,6.2,WSW,6.9,-,N/A,,Partly Cloudy,250,2012-12-21 16:20:00
4:50 PM,48.2,48.2,100,30.01,6.2,SW,6.9,-,N/A,,Mostly Cloudy,230,2012-12-21 16:50:00
5:20 PM,50.0,48.2,94,30.01,5.0,SW,8.1,-,N/A,,Mostly Cloudy,230,2012-12-21 17:20:00
5:50 PM,48.2,48.2,100,30.01,5.0,SW,9.2,-,N/A,,Scattered Clouds,220,2012-12-21 17:50:00
6:00 PM,48,48,99,30.02,5,SW,9.2,,,,Partly Cloudy,230,2012-12-21 18:00:00
6:20 PM,50.0,48.2,94,30.01,5.0,SW,8.1,-,N/A,,Partly Cloudy,220,2012-12-21 18:20:00
6:50 PM,48.2,48.2,100,30.01,6.2,SSW,9.2,-,N/A,,Partly Cloudy,210,2012-12-21 18:50:00
7:20 PM,50.0,48.2,94,30.01,6.2,SSW,10.4,-,N/A,,Mostly Cloudy,200,2012-12-21 19:20:00
7:50 PM,50.0,48.2,94,30.01,6.2,South,9.2,-,N/A,,Mostly Cloudy,190,2012-12-21 19:50:00
8:20 PM,50.0,48.2,94,30.01,6.2,South,9.2,-,N/A,,Partly Cloudy,180,2012-12-21 20:20:00
8:50 PM,50.0,48.2,94,30.01,6.2,South,11.5,-,N/A,,Partly Cloudy,190,2012-12-21 20:50:00
9:00 PM,49,47,92,30.02,7,South,11.5,,,,Scattered Clouds,190,2012-12-21 21:00:00